Overview Statistics Trail Chart Weather Telemetry Raw packets
 

This is the latest recevied weather packets stored in our database for station/object KB9HUO. If no packets are shown the sender has not sent any weather packets the latest 10 day(s).

<< 42 43 44 45 46 47 48 >>
Time Temp. Humidity Pressure Rain* Wind** Luminosity Snow
1788384135 34.44° C 57% 1017.3 hPa 0 mm - 37 W/m² -
1788383831 34.44° C 54% 1017.5 hPa 0 mm - 38 W/m² -
1788383526 34.44° C 55% 1017.4 hPa 0 mm - 39 W/m² -
1788383226 34.44° C 55% 1017.4 hPa 0 mm - 39 W/m² -
1788382921 34.44° C 54% 1017.3 hPa 0 mm - 42 W/m² -
1788382614 34.44° C 55% 1017.5 hPa 0 mm - 42 W/m² -
1788382309 34.44° C 53% 1017.2 hPa 0 mm - 44 W/m² -
1788382004 34.44° C 54% 1017.4 hPa 0 mm - 45 W/m² -
1788381704 34.44° C 56% 1017.4 hPa 0 mm - 75 W/m² -
1788381400 34.44° C 55% 1017.4 hPa 0 mm - 49 W/m² -
1788381100 34.44° C 55% 1017.7 hPa 0 mm - 51 W/m² -
1788380798 34.44° C 54% 1017.7 hPa 0 mm - 182 W/m² -
1788380491 34.44° C 55% 1017.7 hPa 0 mm - 89 W/m² -
1788380187 34.44° C 57% 1017.8 hPa 0 mm - 59 W/m² -
1788379886 34.44° C 55% 1017.9 hPa 0 mm - 118 W/m² -
1788379582 34.44° C 55% 1017.6 hPa 0 mm - 68 W/m² -
1788379278 34.44° C 56% 1017.9 hPa 0 mm - 59 W/m² -
1788378973 34.44° C 54% 1018 hPa 0 mm - 68 W/m² -
1788378673 34.44° C 55% 1017.9 hPa 0 mm - 75 W/m² -
1788378372 34.44° C 57% 1018.1 hPa 0 mm - 82 W/m² -
1788378067 35° C 53% 1018.1 hPa 0 mm - 73 W/m² -
1788377763 34.44° C 54% 1018.2 hPa 0 mm - 94 W/m² -
1788377462 34.44° C 56% 1018.1 hPa 0 mm - 328 W/m² -
1788377161 35° C 55% 1018.3 hPa 0 mm - 106 W/m² -
1788376860 35° C 56% 1018.4 hPa 0 mm - 135 W/m² -

* Rain latest hour (hover to see other rain measurements)
** Current wind speed in m/s (hover to see current wind gust speed)